• In Germany
  • List of Countries
  • For 7 days
  • Water Temperature
  • Satellite Maps
  • Weather Map
  • Weather Widgets
  • user-avatar
    Login

    Hourly Weather Kranevo

    Today, 17 January, Wednesday

    Time Temperature Precipitation Wind Pressure Humidity
    00:00 0°C° 0 mm 5 mps 752 mmHg 94%
    01:00 0°C° 0 mm 5 mps 752 mmHg 94%
    02:00 0°C° 0 mm 5 mps 751 mmHg 93%
    03:00 0°C° 0 mm 4 mps 751 mmHg 92%
    04:00 0°C° 0 mm 4 mps 750 mmHg 90%
    05:00 0°C° 0 mm 4 mps 750 mmHg 88%
    06:00 0°C° 0 mm 4 mps 750 mmHg 87%
    07:00 0°C° 0 mm 4 mps 749 mmHg 86%
    08:00 0°C° 0 mm 4 mps 749 mmHg 85%
    09:00 +1°C° 0 mm 4 mps 749 mmHg 86%
    10:00 +4°C° 0 mm 4 mps 748 mmHg 87%
    11:00 +5°C° 0 mm 4 mps 748 mmHg 88%
    12:00 +5°C° 0 mm 5 mps 747 mmHg 86%
    13:00 +5°C° 0 mm 6 mps 746 mmHg 84%
    14:00 +7°C° 0 mm 6 mps 745 mmHg 81%
    15:00 +5°C° 0 mm 7 mps 744 mmHg 83%
    16:00 +5°C° 0 mm 7 mps 742 mmHg 85%
    17:00 +5°C° 0 mm 7 mps 741 mmHg 86%
    18:00 +6°C° 0.1 mm 8 mps 740 mmHg 86%
    19:00 +6°C° 0.1 mm 9 mps 739 mmHg 86%
    20:00 +7°C° 0.1 mm 10 mps 738 mmHg 86%
    21:00 +7°C° 0.7 mm 10 mps 737 mmHg 87%
    22:00 +7°C° 0.7 mm 9 mps 737 mmHg 88%
    23:00 +7°C° 0.7 mm 9 mps 736 mmHg 89%

    Tomorrow, 18 January, Thursday

    Time Temperature Precipitation Wind Pressure Humidity
    00:00 +6°C° 0.4 mm 10 mps 736 mmHg 88%
    01:00 +3°C° 0.4 mm 10 mps 736 mmHg 86%
    02:00 +2°C° 0.4 mm 11 mps 736 mmHg 85%
    03:00 +1°C° 0.2 mm 11 mps 737 mmHg 84%
    04:00 +1°C° 0.2 mm 11 mps 738 mmHg 83%
    05:00 0°C° 0.2 mm 10 mps 739 mmHg 82%
    06:00 0°C° 0.2 mm 10 mps 740 mmHg 82%
    07:00 0°C° 0.2 mm 10 mps 741 mmHg 82%
    08:00 0°C° 0.2 mm 10 mps 742 mmHg 82%
    09:00 0°C° 0.1 mm 10 mps 743 mmHg 78%
    10:00 +1°C° 0.1 mm 11 mps 744 mmHg 75%
    11:00 +1°C° 0.1 mm 11 mps 745 mmHg 72%
    12:00 +2°C° 0 mm 11 mps 746 mmHg 68%
    13:00 +2°C° 0 mm 11 mps 747 mmHg 64%
    14:00 +2°C° 0 mm 11 mps 748 mmHg 60%
    15:00 +2°C° 0 mm 10 mps 748 mmHg 61%
    16:00 +1°C° 0 mm 10 mps 749 mmHg 63%
    17:00 +1°C° 0 mm 10 mps 750 mmHg 65%
    18:00 0°C° 0 mm 10 mps 751 mmHg 66%
    19:00 0°C° 0 mm 10 mps 752 mmHg 67%
    20:00 -2°C° 0 mm 10 mps 752 mmHg 68%
    21:00 -1°C° 0 mm 9 mps 753 mmHg 69%
    22:00 -3°C° 0 mm 9 mps 753 mmHg 70%
    23:00 -3°C° 0 mm 9 mps 754 mmHg 71%

    Day after tomorrow, 19 January, Friday

    Time Temperature Precipitation Wind Pressure Humidity
    00:00 -2°C° 0 mm 8 mps 754 mmHg 72%
    01:00 -2°C° 0 mm 7 mps 754 mmHg 74%
    02:00 -3°C° 0 mm 6 mps 754 mmHg 75%
    03:00 -2°C° 0 mm 6 mps 753 mmHg 75%
    04:00 -2°C° 0 mm 6 mps 753 mmHg 74%
    05:00 -1°C° 0 mm 5 mps 753 mmHg 73%
    06:00 -2°C° 0 mm 6 mps 753 mmHg 70%
    07:00 -2°C° 0 mm 6 mps 753 mmHg 67%
    08:00 -1°C° 0 mm 6 mps 753 mmHg 63%
    09:00 +2°C° 0 mm 6 mps 753 mmHg 58%
    10:00 +3°C° 0 mm 6 mps 753 mmHg 53%
    11:00 +5°C° 0 mm 6 mps 753 mmHg 49%
    12:00 +7°C° 0 mm 6 mps 753 mmHg 48%
    13:00 +8°C° 0 mm 6 mps 753 mmHg 47%
    14:00 +9°C° 0 mm 6 mps 753 mmHg 46%
    15:00 +8°C° 0 mm 6 mps 753 mmHg 51%
    16:00 +7°C° 0 mm 5 mps 753 mmHg 57%
    17:00 +5°C° 0 mm 5 mps 753 mmHg 62%
    18:00 +5°C° 0 mm 4 mps 753 mmHg 62%
    19:00 +5°C° 0 mm 4 mps 754 mmHg 61%
    20:00 +4°C° 0 mm 4 mps 754 mmHg 61%
    21:00 +4°C° 0 mm 4 mps 754 mmHg 62%
    22:00 +4°C° 0 mm 3 mps 754 mmHg 62%
    23:00 +4°C° 0 mm 3 mps 754 mmHg 62%

    20 January, Saturday

    Time Temperature Precipitation Wind Pressure Humidity
    00:00 +4°C° 0 mm 3 mps 754 mmHg 64%
    01:00 +3°C° 0 mm 3 mps 753 mmHg 66%
    02:00 +3°C° 0 mm 3 mps 753 mmHg 68%
    03:00 +3°C° 0 mm 3 mps 753 mmHg 70%
    04:00 +3°C° 0 mm 3 mps 753 mmHg 72%
    05:00 +2°C° 0 mm 3 mps 753 mmHg 75%
    06:00 +3°C° 0 mm 3 mps 752 mmHg 76%
    07:00 +3°C° 0 mm 4 mps 752 mmHg 77%
    08:00 +3°C° 0 mm 4 mps 752 mmHg 78%
    09:00 +3°C° 0 mm 5 mps 752 mmHg 78%
    10:00 +6°C° 0 mm 5 mps 751 mmHg 77%
    11:00 +8°C° 0 mm 6 mps 751 mmHg 77%
    12:00 +9°C° 0 mm 7 mps 750 mmHg 76%
    13:00 +10°C° 0 mm 7 mps 750 mmHg 74%
    14:00 +10°C° 0 mm 8 mps 749 mmHg 73%
    15:00 +10°C° 0 mm 7 mps 749 mmHg 74%
    16:00 +9°C° 0 mm 7 mps 748 mmHg 75%
    17:00 +8°C° 0 mm 6 mps 748 mmHg 76%
    18:00 +7°C° 0 mm 6 mps 749 mmHg 77%
    19:00 +5°C° 0 mm 6 mps 749 mmHg 78%
    20:00 +5°C° 0 mm 5 mps 750 mmHg 79%
    21:00 +4°C° 0.1 mm 6 mps 750 mmHg 81%
    22:00 +3°C° 0.1 mm 6 mps 750 mmHg 82%
    23:00 +3°C° 0.1 mm 6 mps 751 mmHg 84%

    21 January, Sunday

    Time Temperature Precipitation Wind Pressure Humidity
    00:00 +3°C° 0.6 mm 6 mps 751 mmHg 83%
    01:00 +3°C° 0.6 mm 6 mps 751 mmHg 83%
    02:00 +2°C° 0.6 mm 6 mps 752 mmHg 82%
    03:00 +2°C° 0.2 mm 6 mps 752 mmHg 83%
    04:00 +1°C° 0.2 mm 5 mps 753 mmHg 84%
    05:00 0°C° 0.2 mm 5 mps 753 mmHg 85%
    06:00 0°C° 0 mm 5 mps 754 mmHg 86%
    07:00 0°C° 0 mm 4 mps 754 mmHg 87%
    08:00 0°C° 0 mm 4 mps 755 mmHg 88%
    09:00 0°C° 0 mm 4 mps 755 mmHg 83%
    10:00 +1°C° 0 mm 4 mps 756 mmHg 78%
    11:00 +1°C° 0 mm 4 mps 756 mmHg 73%
    12:00 +3°C° 0 mm 4 mps 756 mmHg 69%
    13:00 +3°C° 0 mm 4 mps 756 mmHg 65%
    14:00 +4°C° 0 mm 3 mps 756 mmHg 61%
    15:00 +3°C° 0 mm 4 mps 756 mmHg 64%
    16:00 +3°C° 0 mm 4 mps 756 mmHg 67%
    17:00 +1°C° 0 mm 4 mps 756 mmHg 70%
    18:00 +1°C° 0 mm 5 mps 757 mmHg 71%
    19:00 +1°C° 0 mm 5 mps 757 mmHg 73%
    20:00 0°C° 0 mm 5 mps 757 mmHg 74%
    21:00 -1°C° 0 mm 6 mps 757 mmHg 75%
    22:00 -1°C° 0 mm 6 mps 757 mmHg 76%
    23:00 -1°C° 0 mm 6 mps 757 mmHg 77%

    22 January, Monday

    Time Temperature Precipitation Wind Pressure Humidity
    00:00 -1°C° 0 mm 7 mps 757 mmHg 77%
    01:00 -1°C° 0 mm 7 mps 757 mmHg 78%
    02:00 -1°C° 0 mm 7 mps 757 mmHg 78%
    03:00 -1°C° 0 mm 8 mps 757 mmHg 79%
    04:00 -2°C° 0 mm 8 mps 757 mmHg 79%
    05:00 -2°C° 0 mm 8 mps 757 mmHg 80%
    06:00 -2°C° 0 mm 8 mps 757 mmHg 78%
    07:00 -2°C° 0 mm 8 mps 758 mmHg 76%
    08:00 -3°C° 0 mm 9 mps 758 mmHg 74%
    09:00 -3°C° 0 mm 9 mps 758 mmHg 69%
    10:00 -3°C° 0 mm 9 mps 759 mmHg 64%
    11:00 -1°C° 0 mm 9 mps 759 mmHg 59%
    12:00 -1°C° 0 mm 9 mps 759 mmHg 57%
    13:00 0°C° 0 mm 9 mps 759 mmHg 55%
    14:00 0°C° 0 mm 9 mps 759 mmHg 53%
    15:00 -1°C° 0 mm 8 mps 760 mmHg 56%
    16:00 -1°C° 0 mm 8 mps 760 mmHg 60%
    17:00 -2°C° 0 mm 7 mps 760 mmHg 63%
    18:00 -2°C° 0 mm 7 mps 761 mmHg 67%
    19:00 -3°C° 0 mm 7 mps 761 mmHg 70%
    20:00 -3°C° 0 mm 7 mps 762 mmHg 74%
    21:00 -3°C° 0 mm 7 mps 762 mmHg 74%
    22:00 -4°C° 0 mm 7 mps 762 mmHg 75%
    23:00 -4°C° 0 mm 7 mps 762 mmHg 75%
    Show more